Hourly Data Report for October 04, 2017

All times are specified in Local Standard Time (LST). Add 1 hour to adjust for Daylight Saving Time where and when it is observed.

MALAHAT
BRITISH COLUMBIA

48°34'29.700" N
123°31'47.700" W
365.80 m
1014820
71774
WKH

Download Data

Hourly Data (October 2017)
Hourly Data Report for October 4, 2017
Temp Definition
°C
Dew Point Temp Definition
°C
Rel Hum Definition
%
Wind Dir Definition
10's deg

Wind Spd Definition
km/h
Visibility Definition
km
Stn Press Definition
kPa
Hmdx Definition


Wind Chill Definition


Weather Definition


TIME
00:00 12.2 -4.5 31 LegendMM LegendMM   97.85     LegendNANA
01:00 12.3 -5.3 29 LegendMM LegendMM   97.86     LegendNANA
02:00 12.0 -4.5 31 LegendMM LegendMM   97.84     LegendNANA
03:00 11.5 -4.0 34 LegendMM LegendMM   97.82     LegendNANA
04:00 11.1 -2.3 39 LegendMM LegendMM   97.78     LegendNANA
05:00 10.9 -1.7 41 LegendMM LegendMM   97.75     LegendNANA
06:00 10.7 -1.8 42 LegendMM LegendMM   97.73     LegendNANA
07:00 11.0 -2.1 40 LegendMM LegendMM   97.75     LegendNANA
08:00 11.7 -0.9 42 LegendMM LegendMM   97.76     LegendNANA
09:00 13.0 0.1 41 LegendMM LegendMM   97.77     LegendNANA
10:00 13.1 0.1 41 LegendMM LegendMM   97.81     LegendNANA
11:00 13.7 0.1 39 LegendMM LegendMM   97.77     LegendNANA
12:00 15.2 0.2 36 LegendMM LegendMM   97.76     LegendNANA
13:00 16.2 0.4 34 LegendMM LegendMM   97.74     LegendNANA
14:00 15.9 1.3 37 LegendMM LegendMM   97.72     LegendNANA
15:00 16.4 -1.1 30 LegendMM LegendMM   97.71     LegendNANA
16:00 14.5 1.3 41 LegendMM LegendMM   97.70     LegendNANA
17:00 14.0 1.2 42 LegendMM LegendMM   97.68     LegendNANA
18:00 12.8 1.4 46 LegendMM LegendMM   97.67     LegendNANA
19:00 13.1 -5.2 27 LegendMM LegendMM   97.69     LegendNANA
20:00 13.6 -8.0 22 LegendMM LegendMM   97.68     LegendNANA
21:00 13.0 -7.5 23 LegendMM LegendMM   97.69     LegendNANA
22:00 12.3 -3.7 33 LegendMM LegendMM   97.71     LegendNANA
23:00 12.5 -5.3 28 LegendMM LegendMM   97.71     LegendNANA

Notes on Data Quality.

Legend

  • E = Estimated
  • M = Missing
  • NA = Not Available
  • ‡ = Partner data that is not subject to review by the National Climate Archives
Date modified: